[[{"header":{"parameterUnit":"m.s-1","parameterCategory":1,"la1":30.2992,"la2":30.254,"lo1":-89.0895,"lo2":-89.0443,"dy":0.0025,"dx":0.0025,"nx":19,"ny":19,"refTime":"2026-03-20T09:00:00:Z","depth":0,"parameterNumber":2,"parameterNumberName":"U-component_of_WINDS"},"data":[0,0,0,2.6088,2.6094,2.635,2.6351,2.6706,2.6709,0,0,0,0,0,0,0,0,0,0,0,2.6024,2.6027,2.6088,2.6094,2.635,2.6351,2.6705,2.6709,0,0,0,0,0,0,0,0,0,0,0,2.6023,2.6026,2.603,2.6095,2.635,2.6351,2.6704,2.6502,0,0,0,0,0,0,0,0,0,0,2.6249,2.6201,2.6025,2.603,2.6097,2.635,2.6352,2.6492,2.6515,2.66,0,2.6674,0,2.6697,2.6734,2.6735,0,0,0,2.6086,2.6182,2.624,2.603,2.6099,2.635,2.6233,2.6505,2.6531,2.663,2.6679,2.6692,2.6703,2.6737,2.6738,2.7245,2.7248,0,0,2.6072,2.6078,2.6222,2.6257,2.6215,2.6224,2.6241,2.652,2.6576,2.6681,2.67,2.6709,2.6739,2.6742,2.7243,2.7246,0,0,0,2.6037,2.6068,2.6119,2.6243,2.6287,2.6232,2.6251,2.6563,2.6579,2.6704,2.6713,2.6741,2.6746,2.724,2.7244,2.7385,0,0,0,2.6028,2.6047,2.6113,2.6119,2.6282,2.6428,2.6288,2.656,2.6591,2.6711,2.6741,2.6749,2.7236,2.7242,2.7375,2.7453,0,0,0,2.6004,2.6044,2.6085,2.6119,2.6229,2.6423,2.6454,2.6566,2.6598,2.6736,2.675,2.7234,2.7241,2.7366,2.7437,2.759,0,0,0,2.598,2.6208,2.6088,2.6346,2.6227,2.6506,2.6452,2.6662,2.6797,2.6743,2.7237,2.7243,2.7363,2.7428,2.758,2.7721,2.778,0,0,2.6271,2.6243,2.6395,2.6295,2.6597,2.6467,2.6792,2.6912,2.6921,2.7138,2.715,2.7378,2.7436,2.7588,2.8099,2.8145,0,0,0,2.6489,2.6599,2.6678,2.6805,2.69,2.699,2.7058,2.7103,2.7286,2.7032,2.7472,2.7507,2.7596,2.7664,2.7703,2.7781,2.7274,2.7273,2.7272,2.6912,2.6909,2.7162,2.7191,2.7315,2.7383,2.7486,2.7559,2.7521,2.7625,2.7691,2.8,2.8079,2.8109,2.819,2.7762,2.7762,2.7763,2.7763,2.7341,2.7498,2.744,2.7665,2.7662,2.7852,2.7928,2.7895,2.8074,2.795,2.8028,2.7896,2.816,2.8231,2.7774,2.7772,2.7771,2.777,2.7769,2.7621,2.7695,2.7743,2.7928,2.8072,2.8094,2.8268,2.8259,2.8253,2.833,2.84,2.8398,2.8398,2.8363,2.8364,2.8365,2.8366,2.8367,2.8368,2.7893,2.7943,2.8089,2.8209,2.8291,2.8397,2.8468,2.855,2.8639,2.8619,2.862,2.8575,2.8184,2.8088,2.8385,2.8381,2.8379,2.8378,2.8377,2.8336,2.8234,2.846,2.8542,2.8684,2.8829,2.8814,2.8981,2.9047,2.9134,2.9072,2.8782,2.8755,2.8724,2.8645,2.9068,2.9068,2.9068,2.9068,2.8575,2.8558,2.8789,2.892,2.9048,2.9058,2.9319,2.9378,2.9423,2.9465,2.9401,2.9294,2.9262,2.9254,2.9211,2.9138,2.9677,2.9677,2.9678,2.8849,2.8844,2.9066,2.9106,2.9216,2.9312,2.9558,2.9716,2.9745,2.9703,2.9498,2.9472,2.93,2.9243,2.9199,2.9132,2.8997,0,0]},{"header":{"parameterUnit":"m.s-1","parameterCategory":1,"la1":30.2992,"la2":30.254,"lo1":-89.0895,"lo2":-89.0443,"dy":0.0025,"dx":0.0025,"nx":19,"ny":19,"refTime":"2026-03-20T09:00:00:Z","depth":0,"parameterNumber":3,"parameterNumberName":"V-component_of_WINDS"},"data":[0,0,0,4.7788,4.7796,4.8198,4.8199,4.87,4.8705,0,0,0,0,0,0,0,0,0,0,0,4.7664,4.7667,4.7787,4.7797,4.8197,4.8199,4.8699,4.8705,0,0,0,0,0,0,0,0,0,0,0,4.7662,4.7666,4.767,4.7799,4.8197,4.8199,4.8698,4.84,0,0,0,0,0,0,0,0,0,0,4.8012,4.7893,4.7665,4.767,4.7801,4.8197,4.82,4.8386,4.8418,4.8514,0,4.8599,0,4.866,4.8738,4.8739,0,0,0,4.7801,4.7865,4.7978,4.7671,4.7805,4.8196,4.8018,4.8404,4.8441,4.8558,4.8606,4.8625,4.8668,4.8741,4.8743,4.9285,4.9287,0,0,4.7779,4.7733,4.7953,4.8002,4.7941,4.8005,4.803,4.8427,4.8476,4.8608,4.8637,4.8676,4.8744,4.8748,4.9283,4.9285,0,0,0,4.7713,4.7717,4.7821,4.7981,4.8054,4.8017,4.8046,4.8459,4.8496,4.8643,4.8682,4.8747,4.8753,4.928,4.9284,4.9356,0,0,0,4.77,4.7679,4.7811,4.7786,4.8047,4.8262,4.8068,4.8469,4.8515,4.868,4.8747,4.8758,4.9278,4.9282,4.9348,4.9398,0,0,0,4.7639,4.7672,4.7728,4.7783,4.7954,4.8257,4.8317,4.848,4.8539,4.874,4.8759,4.9276,4.9281,4.9342,4.9387,4.9528,0,0,0,4.7562,4.7786,4.7728,4.7993,4.795,4.8298,4.8315,4.8576,4.8757,4.8749,4.9278,4.9283,4.934,4.9381,4.952,4.9639,4.9684,0,0,4.7819,4.7815,4.7975,4.7935,4.8281,4.824,4.8598,4.8806,4.8867,4.9141,4.9155,4.9351,4.9387,4.9526,4.9947,4.9982,0,0,0,4.8041,4.8155,4.8257,4.8427,4.8591,4.8737,4.8895,4.8972,4.9208,4.8999,4.944,4.9463,4.9547,4.9606,4.9636,4.9711,4.9308,4.9307,4.9307,4.8339,4.8405,4.8673,4.8787,4.8952,4.9113,4.9252,4.9383,4.94,4.9503,4.9586,4.9834,4.9901,4.9923,5.0001,4.9652,4.9653,4.9653,4.9653,4.8722,4.8895,4.8913,4.9181,4.9248,4.9473,4.9635,4.964,4.9859,4.9777,4.9854,4.976,4.996,5.0031,4.9659,4.9658,4.9658,4.9657,4.9657,4.8926,4.9021,4.9111,4.9363,4.9549,4.9656,4.9865,4.9918,4.997,5.0046,5.0139,5.0138,5.0145,5.0086,5.0087,5.0088,5.0089,5.0089,5.009,4.9103,4.9202,4.9373,4.9566,4.9682,4.9841,5.0003,5.0118,5.0259,5.0281,5.0282,5.029,4.9967,4.9885,5.0103,5.0101,5.0099,5.0098,5.0097,4.9471,4.9396,4.9659,4.9776,5.0006,5.0187,5.0252,5.0481,5.0584,5.0685,5.0676,5.0428,5.0428,5.0404,5.0338,5.066,5.066,5.066,5.066,4.9644,4.9649,4.9931,5.0112,5.0296,5.0381,5.0675,5.0803,5.0922,5.0989,5.095,5.0865,5.0838,5.0854,5.0821,5.076,5.1182,5.1183,5.1184,4.9874,4.9899,5.0141,5.0258,5.0441,5.0597,5.0876,5.1082,5.1202,5.1206,5.1043,5.1021,5.0884,5.0836,5.0839,5.0786,5.0674,0,0]}]]